Regional Weather Roundup
Issued by NWS

Home | Current Version | Previous Version | Text Only | Print | Product List | Glossary On
Versions: 1 2 3 4 5 6 7 8 9 10 11 12 13 14 15 16 17 18 19 20 21 22 23 24 25 26 27 28 29 30 31 32 33 34 35 36 37 38 39 40 41 42 43 44 45 46 47 48 49 50
000
ASCA42 TJSJ 241310
RWRPR
PUERTO RICO/U.S. VIRGIN ISLANDS HOURLY WEATHER ROUNDUP
NATIONAL WEATHER SERVICE SAN JUAN PR
900 AM AST SUN MAY 24 2015

PRZ001-004-241400-
PUERTO RICO

CITY           SKY/WX    TMP DP  RH WIND       PRES   REMARKS
SAN JUAN LMM   MOSUNNY   82  73  74 E17       30.10S
PONCE          MOSUNNY   88  70  55 E9        30.01S HX  92
AGUADILLA      MOSUNNY   84  70  61 E18G24    30.11R
CEIBA          PTSUNNY   84  72  65 E13       30.12S
$$

PRZ006-007-241400-
U.S. VIRGIN ISLANDS

CITY           SKY/WX    TMP DP  RH WIND       PRES   REMARKS
CHARLOTTE AMA  CLOUDY    84  70  61 E15       30.09R
CHRISTIANSTED  PTSUNNY   84  70  61 E15G22    30.10R
$$

HOURLY WEATHER ROUNDUP FOR THE NEWS MEDIA

CITY           SKY/WX    TMP DP  RH WIND       PRES   REMARKS
ORLANDO        PTSUNNY   81  71  71 E9        30.23S
NEW YORK       MOSUNNY   65  48  54 SW12      30.38S
NEWARK         MOSUNNY   64  44  48 SW13      30.38R
CHICAGO        CLOUDY    62  52  69 S6        30.18S
HARTFORD       SUNNY     65  43  44 W10       30.29F
BOSTON         MOSUNNY   66  35  31 W14       30.26S
DALLAS         HVY RAIN  67  65  93 SE16      29.91R FOG
PHILADELPHIA   MOSUNNY   64  53  67 SW10      30.41R
LOS ANGELES    CLOUDY    58  52  80 W7        30.00R
WASHINGTON DC  MOSUNNY   62  52  69 S7        30.39F



USA.gov is the U.S. government's official web portal to all federal, state and local government web resources and services.